Ostrava, Czech Republic

1:17 PM CET on February 11, 2016 (GMT +0100)
Mosnov

Weather History for LKMT - October, 2012

Change the Weather History Date:

Sunday, October 14, 2012

  Actual Average (EPKT) Record (EPKT)
Temperature  
Mean Temperature 51 °F -  
Max Temperature 59 °F 51 °F 73 °F (2000)
Min Temperature 43 °F 37 °F 26 °F (2007)
Degree Days  
Heating Degree Days 14    
Growing Degree Days 1 (Base 50)    
Moisture  
Dew Point 47 °F    
Average Humidity 84    
Maximum Humidity 93    
Minimum Humidity 63    
Precipitation  
Precipitation 0.00 in 0.06 in - ()
Sea Level Pressure  
Sea Level Pressure 29.77 in    
Wind  
Wind Speed 5 mph ()    
Max Wind Speed 18 mph    
Max Gust Speed -    
Visibility 6.0 miles    
Events      
Averages and records for this station are not official NWS values.
T = Trace of Precipitation, MM = Missing Value Source: Averaged Metar Reports

Daily Weather History Graph

Daily Weather History Graph

Search for Another Location

Airport or City:

Trip Planner

Search our weather history database for the weather conditions in past years. The results will help you decide how hot, cold, wet, or windy it might be!

Date:

Astronomy

Oct. 14, 2012 Rise Set
Actual Time 7:07 AM CEST 5:58 PM CEST
Civil Twilight 6:35 AM CEST 6:30 PM CEST
Nautical Twilight 5:58 AM CEST 7:07 PM CEST
Astronomical Twilight 5:20 AM CEST 7:44 PM CEST
Moon 5:42 AM CEST (10/14) 5:07 PM CEST (10/14)
Length of Visible Light 11h 55m
Length of Day
10h 50m
Waning Crescent, 2% of the Moon is Illuminated
Oct 14
Waning Crescent
Oct 15
New
Oct 22
First Quarter
Oct 29
Full
Nov 7
Last Quarter

Hourly Weather History & Observations

Time (CEST) Temp. Windchill Dew Point Humidity Pressure Visibility Wind Dir Wind Speed Gust Speed Precip Events Conditions
12:00 AM 46.4 °F - 42.8 °F 87% 29.86 in 6.2 mi Variable 2.3 mph - N/A   Partly Cloudy
12:30 AM 46.4 °F - 42.8 °F 87% 29.86 in 6.2 mi Variable 1.2 mph - N/A   Partly Cloudy
1:00 AM 46.4 °F - 42.8 °F 87% 29.83 in 6.2 mi East 2.3 mph - N/A   Partly Cloudy
1:30 AM 44.6 °F - 42.8 °F 93% 29.83 in 5.6 mi Calm Calm - N/A   Partly Cloudy
2:00 AM 45 °F - 43 °F 92% 29.86 in 6 mi WSW 2.2 mph - -   Mist
2:00 AM 44.6 °F - 42.8 °F 93% 29.83 in 5.6 mi West 2.3 mph - N/A   Partly Cloudy
2:30 AM 44.6 °F - 42.8 °F 93% 29.83 in 4.3 mi Variable 2.3 mph - N/A   Scattered Clouds
3:00 AM 46.4 °F - 44.6 °F 93% 29.80 in 5.0 mi Variable 1.2 mph - N/A   Partly Cloudy
3:30 AM 46.4 °F 45.2 °F 44.6 °F 93% 29.80 in 5.0 mi West 3.5 mph - N/A   Partly Cloudy
4:00 AM 44.6 °F - 42.8 °F 93% 29.80 in 4.3 mi Variable 1.2 mph - N/A   Partly Cloudy
4:30 AM 44.6 °F - 42.8 °F 93% 29.80 in 3.7 mi Variable 2.3 mph - N/A   Overcast
5:00 AM 46.4 °F - 44.6 °F 93% 29.77 in 3.7 mi Variable 2.3 mph - N/A   Overcast
5:30 AM 46.4 °F - 44.6 °F 93% 29.77 in 5.0 mi SW 2.3 mph - N/A   Mostly Cloudy
6:00 AM 46.4 °F - 44.6 °F 93% 29.77 in 5.6 mi Variable 1.2 mph - N/A   Overcast
6:30 AM 46.4 °F - 44.6 °F 93% 29.77 in 5.6 mi Variable 2.3 mph - N/A   Overcast
7:00 AM 48.2 °F - 46.4 °F 93% 29.77 in 5.0 mi Variable 1.2 mph - N/A   Overcast
7:30 AM 53.6 °F - 48.2 °F 82% 29.80 in 6.2 mi SSW 11.5 mph - N/A   Mostly Cloudy
8:00 AM 53 °F - 48 °F 78% 29.80 in 7 mi SSW 11.2 mph - -   Mostly Cloudy
8:00 AM 53.6 °F - 48.2 °F 82% 29.77 in 6.2 mi SSW 11.5 mph - N/A   Mostly Cloudy
8:30 AM 53.6 °F - 48.2 °F 82% 29.80 in 6.2 mi SSW 8.1 mph - N/A   Mostly Cloudy
9:00 AM 53.6 °F - 48.2 °F 82% 29.80 in 6.2 mi SW 10.4 mph - N/A   Mostly Cloudy
9:30 AM 53.6 °F - 50.0 °F 88% 29.80 in 6.2 mi WSW 5.8 mph - N/A   Mostly Cloudy
10:00 AM 53.6 °F - 48.2 °F 82% 29.80 in 6.2 mi WSW 8.1 mph - N/A   Overcast
10:30 AM 53.6 °F - 50.0 °F 88% 29.80 in 6.2 mi SW 6.9 mph - N/A   Mostly Cloudy
11:00 AM 55.4 °F - 50.0 °F 82% 29.80 in 6.2 mi WSW 10.4 mph - N/A   Overcast
11:30 AM 53.6 °F - 50.0 °F 88% 29.77 in 6.2 mi WSW 9.2 mph - N/A   Overcast
12:00 PM 55.4 °F - 48.2 °F 77% 29.77 in 6.2 mi SSW 13.8 mph - N/A   Mostly Cloudy
12:30 PM 57.2 °F - 50.0 °F 77% 29.77 in 6.2 mi SSW 15.0 mph - N/A   Mostly Cloudy
1:00 PM 57.2 °F - 50.0 °F 77% 29.77 in 6.2 mi SW 13.8 mph - N/A   Mostly Cloudy
1:30 PM 57.2 °F - 50.0 °F 77% 29.74 in 6.2 mi SW 13.8 mph - N/A   Mostly Cloudy
2:00 PM 58 °F - 49 °F 63% 29.75 in 12 mi SW 17.9 mph - -   Partly Cloudy
2:00 PM 57.2 °F - 50.0 °F 77% 29.74 in 6.2 mi SW 17.3 mph - N/A   Scattered Clouds
2:30 PM 57.2 °F - 48.2 °F 72% 29.74 in 6.2 mi SW 18.4 mph - N/A   Scattered Clouds
3:00 PM 57.2 °F - 48.2 °F 72% 29.74 in 6.2 mi SW 16.1 mph - N/A   Scattered Clouds
3:30 PM 57.2 °F - 48.2 °F 72% 29.74 in 6.2 mi SW 13.8 mph - N/A   Scattered Clouds
4:00 PM 57.2 °F - 48.2 °F 72% 29.74 in 6.2 mi SSW 10.4 mph - N/A   Scattered Clouds
4:30 PM 55.4 °F - 48.2 °F 77% 29.74 in 6.2 mi SSW 13.8 mph - N/A   Scattered Clouds
5:00 PM 53.6 °F - 48.2 °F 82% 29.74 in 6.2 mi SW 10.4 mph - N/A   Scattered Clouds
5:30 PM 53.6 °F - 48.2 °F 82% 29.74 in 6.2 mi SW 6.9 mph - N/A   Scattered Clouds
6:00 PM 50.0 °F - 46.4 °F 87% 29.74 in 6.2 mi SW 6.9 mph - N/A   Scattered Clouds
6:30 PM 51.8 °F - 46.4 °F 82% 29.74 in 6.2 mi Variable 2.3 mph - N/A   Scattered Clouds
7:00 PM 50.0 °F - 46.4 °F 87% 29.74 in 6.2 mi Variable 2.3 mph - N/A   Mostly Cloudy
7:30 PM 53.6 °F - 48.2 °F 82% 29.74 in 6.2 mi SW 6.9 mph - N/A   Mostly Cloudy
8:00 PM 53 °F - 47 °F 75% 29.74 in 7 mi SW 2.2 mph - -   Mostly Cloudy
8:00 PM 51.8 °F - 48.2 °F 88% 29.71 in 6.2 mi SW 3.5 mph - N/A   Mostly Cloudy
8:30 PM 51.8 °F - 48.2 °F 88% 29.71 in 6.2 mi WSW 4.6 mph - N/A   Mostly Cloudy
9:00 PM 51.8 °F - 48.2 °F 88% 29.71 in 6.2 mi SW 5.8 mph - N/A   Overcast
9:30 PM 51.8 °F - 48.2 °F 88% 29.71 in 6.2 mi SW 5.8 mph - N/A   Mostly Cloudy
10:00 PM 51.8 °F - 48.2 °F 88% 29.71 in 6.2 mi West 4.6 mph - N/A   Overcast
10:30 PM 51.8 °F - 48.2 °F 88% 29.68 in 6.2 mi Variable 2.3 mph - N/A   Overcast
11:00 PM 55.4 °F - 46.4 °F 72% 29.68 in 6.2 mi Variable 2.3 mph - N/A   Overcast
11:30 PM 57.2 °F - 46.4 °F 67% 29.68 in 6.2 mi SSW 6.9 mph - N/A   Mostly Cloudy